Вернуться в каталог

STARLINK-4552

АктивенСвязьVLEO
NORAD 53420·PAYLOAD·🇺🇸 United States

Запущен Aug 10, 2022 с Cape Canaveral Space Force Station

Loading…

Ближайшие Пролёты (ближайшие 24 часа)

TLE

СвежийSource: CelesTrak SupGP

Эпоха: Sep 14, 2026, 21:53 UTC

1 53420C 22097AJ  26257.91229167 -.00025353  00000+0 -74930-3 0  2575
2 53420  53.1574 332.0091 0001214  86.5845 287.0590 15.34393647    10

Отслеживайте STARLINK-4552 в реальном времени с AllMySat

Download on the App Store